x

Naubinway, Mi (nabm4) Weather Station

11:40am - Sat 6th Feb 2016 All times are CST. -6 hours from GMT.

  • Wind
    6mph, 10mph gusts
  • Air Temp 30°f
  • Sea Pressure 1016.3mb
  • Naubinway, Mi
  • Naubinway, Mi

More Historic Weather Station data

Upgrade to MSW Pro to gain access to the past 30 days of data for over 8000 Wavebouys and Weather Stations around the globe.

Join Pro

Comparision Forecast

View Surf forecast
   
Sat 02/06 11:40am 6 10 mph 1016.3mb 30f
11:30am 5 11 mph 1016.6mb 29f
11:20am 6 10 mph 1016.6mb 29f
11:15am 7 11 mph 1016.6mb 29f
11:10am 7 9 mph 1016.6mb 29f
11:00am 8 11 mph 1016.9mb 28f
10:40am 6 9 mph 1016.9mb 28f
10:30am 6 9 mph 1017.3mb 27f
10:20am 6 8 mph 1017.3mb 27f
10:15am 5 14 mph 1017.3mb 27f
10:10am 3 8 mph 1017.3mb 27f
10:00am 5 11 mph 1017.3mb 27f
9:40am 8 13 mph 1017.3mb 26f
9:30am 6 14 mph 1017.3mb 26f
9:20am 7 14 mph 1017.3mb 26f
9:14am 6 14 mph 1017.3mb 26f
9:10am 8 13 mph 1017.3mb 26f
9:00am 7 14 mph 1017.3mb 26f
8:40am 7 11 mph 1016.9mb 26f
8:30am 7 11 mph 1016.9mb 26f
8:20am 5 13 mph 1016.9mb 26f
8:14am 3 13 mph 1016.9mb 25f
8:10am 5 9 mph 1016.9mb 25f
8:00am 6 11 mph 1016.9mb 25f
7:40am 7 11 mph 1016.9mb 25f
7:30am 7 11 mph 1016.9mb 25f
7:20am 7 13 mph 1016.9mb 25f
7:13am 3 15 mph 1016.9mb 25f
7:10am 7 13 mph 1016.9mb 25f
7:00am 7 13 mph 1016.9mb 26f
6:40am 7 14 mph 1016.9mb 26f
6:30am 8 15 mph 1016.9mb 26f
6:20am 7 14 mph 1016.9mb 26f
6:13am 8 18 mph 1016.9mb 26f
6:10am 8 16 mph 1016.9mb 26f
6:00am 9 16 mph 1016.9mb 26f
5:40am 7 18 mph 1016.9mb 26f
5:30am 8 15 mph 1016.9mb 26f
5:20am 9 15 mph 1016.9mb 26f
5:13am 8 18 mph 1016.9mb 26f
5:10am 9 15 mph 1016.9mb 26f
5:00am 9 17 mph 1016.9mb 26f
4:40am 8 16 mph 1017.3mb 26f
4:30am 11 17 mph 1017.3mb 26f
4:20am 11 18 mph 1017.3mb 26f
4:12am 9 23 mph 1017.3mb 26f
4:10am 8 23 mph 1017.3mb 26f
4:00am 11 20 mph 1017.3mb 26f
3:40am 11 20 mph 1016.9mb 26f
3:30am 10 21 mph 1017.3mb 26f
3:20am 10 20 mph 1017.3mb 26f
3:12am 9 28 mph 1017.3mb 27f
3:10am 11 20 mph 1017.3mb 27f
3:00am 14 21 mph 1017.3mb 27f
2:40am 14 26 mph 1017.6mb 28f
2:30am 15 28 mph 1017.6mb 29f
2:20am 14 25 mph 1017.9mb 29f
2:11am 14 28 mph 1017.9mb 30f
2:10am 14 23 mph 1017.6mb 30f
2:00am 16 24 mph 1017.6mb 29f
1:40am 18 28 mph 1017.9mb 29f
1:30am 13 21 mph 1017.9mb 29f
1:20am 14 24 mph 1018.3mb 29f
1:10am 16 24 mph 1017.9mb 29f
1:00am 17 24 mph 1018.3mb 29f
12:40am 9 17 mph 1018.6mb 29f
12:30am 11 21 mph 1019mb 29f
12:20am 10 20 mph 1019mb 29f
12:11am 15 29 mph 1019mb 30f
12:10am 15 26 mph 1019mb 30f
12:00am 17 26 mph 1019mb 30f
Fri 02/05 11:40pm 21 25 mph 1019.3mb 29f
11:30pm 18 24 mph 1019.3mb 29f
11:20pm 16 23 mph 1019.3mb 29f
11:10pm 15 26 mph 1019.6mb 28f
11:00pm 16 22 mph 1019.6mb 28f
10:40pm 15 21 mph 1020.3mb 28f
10:30pm 16 26 mph 1020.3mb 28f
10:20pm 21 26 mph 1020.3mb 28f
10:10pm 15 23 mph 1020.3mb 28f
10:00pm 15 20 mph 1020.7mb 28f
9:40pm 2 7 mph 1021mb 25f
9:30pm 1 5 mph 1021.3mb 22f
9:20pm 2 5 mph 1021.3mb 23f
9:10pm 2 5 mph 1021.7mb 23f
9:09pm 2 10 mph 1021.7mb 24f
9:00pm 2 5 mph 1021.7mb 24f
8:40pm 3 10 mph 1022mb 25f
8:30pm 6 9 mph 1022mb 26f
8:20pm 7 8 mph 1022.4mb 26f
8:10pm 5 10 mph 1022.4mb 26f
8:09pm 6 10 mph 1022.4mb 26f
8:00pm 6 9 mph 1022.4mb 26f
7:40pm 2 6 mph 1022.7mb 20f
7:30pm  -  2 mph 1022.7mb 20f
7:20pm  -  mph 1022.7mb 20f
7:10pm  -  2 mph 1022.7mb 22f
7:00pm 1 2 mph 1023mb 22f
6:40pm 1 2 mph 1023.4mb 22f
6:30pm 1 2 mph 1023.4mb 23f
6:20pm 1 2 mph 1023.4mb 23f
6:10pm 1 3 mph 1023.4mb 24f
6:00pm 2 3 mph 1023.7mb 24f
5:40pm 3 5 mph 1023.7mb 24f
5:30pm 3 5 mph 1023.7mb 24f
5:20pm 5 6 mph 1023.7mb 25f
5:10pm 3 7 mph 1023.7mb 25f
5:08pm 5 7 mph 1023.7mb 25f
5:00pm 5 7 mph 1023.7mb 25f
4:40pm 3 6 mph 1023.4mb 25f
4:30pm 3 5 mph 1023.4mb 26f
4:20pm 2 5 mph 1023.4mb 26f
4:10pm 3 6 mph 1023.4mb 27f
4:07pm 2 14 mph 1023.4mb 29f
4:00pm 2 5 mph 1023.4mb 29f
3:40pm 2 9 mph 1023.4mb 26f
3:30pm 7 14 mph 1023.4mb 26f
3:20pm 9 13 mph 1023.4mb 26f
3:10pm 7 10 mph 1023.4mb 28f
3:07pm 6 14 mph 1023mb 28f
3:00pm 7 10 mph 1023mb 27f
2:40pm 7 9 mph 1023.4mb 26f
2:30pm 7 11 mph 1023mb 26f
2:20pm 7 14 mph 1023.4mb 26f
2:10pm 8 13 mph 1023mb 26f
2:06pm 11 13 mph 1023mb 26f
2:00pm 9 18 mph 1023.4mb 26f
1:40pm 5 7 mph 1023.4mb 33f
1:30pm 2 7 mph 1023mb 32f
1:20pm 2 7 mph 1023mb 30f
1:10pm 5 9 mph 1023mb 28f
1:06pm 3 13 mph 1023mb 28f
1:00pm 5 13 mph 1023mb 28f
12:50pm 7 9 mph 1023.4mb 28f
12:40pm 5 11 mph 1023.4mb 28f
12:30pm 6 8 mph 1023.4mb 28f
12:20pm 6 9 mph 1023.4mb 29f
12:10pm 5 9 mph 1023.7mb 29f
12:06pm 5 14 mph 1023.7mb 29f
12:00pm 7 11 mph 1023.7mb 29f
11:50am 7 13 mph 1023.7mb 28f
11:40am 9 13 mph 1023.7mb 27f
11:30am 10 14 mph 1023.7mb 27f
11:20am 5 10 mph 1024mb 29f
11:10am 5 11 mph 1024mb 28f
11:05am 6 15 mph 1024mb 28f
11:00am 8 15 mph 1024mb 27f
10:50am 8 14 mph 1024mb 28f
10:40am 7 9 mph 1024mb 28f
10:30am 8 10 mph 1024mb 27f
10:20am 8 11 mph 1024mb 26f
10:10am 9 13 mph 1024mb 26f
10:05am 8 11 mph 1024mb 25f
10:00am 7 10 mph 1024mb 25f
9:50am 8 11 mph 1024mb 24f
9:40am 5 9 mph 1023.7mb 24f
9:30am 6 7 mph 1023.4mb 22f
9:20am 6 8 mph 1023.7mb 20f
9:10am 5 9 mph 1023.7mb 18f
9:04am 6 13 mph 1023.7mb 18f
9:00am 7 10 mph 1023.7mb 18f
8:50am 8 11 mph 1023.4mb 19f
8:40am 8 11 mph 1023.4mb 19f
8:30am 9 13 mph 1023.4mb 19f
8:20am 7 11 mph 1023.4mb 19f
8:10am 8 13 mph 1023.4mb 18f
8:04am 9 13 mph 1023.4mb 18f
8:00am 8 10 mph 1023mb 18f
7:50am 7 11 mph 1023mb 18f
7:40am 7 10 mph 1023mb 18f
7:30am 7 9 mph 1023mb 18f
7:20am 5 9 mph 1022.7mb 18f
7:10am 6 8 mph 1023mb 18f
7:04am 6 10 mph 1023mb 18f
7:00am 6 8 mph 1022.7mb 18f
6:50am 6 9 mph 1022.7mb 18f
6:40am 7 10 mph 1022.4mb 18f
6:30am 7 9 mph 1022.4mb 18f
6:20am 6 8 mph 1022mb 18f
6:10am 5 8 mph 1022mb 18f
6:03am 6 13 mph 1022.4mb 18f
6:00am 6 8 mph 1022mb 18f
5:50am 6 9 mph 1022mb 18f
5:40am 6 8 mph 1022mb 19f
5:30am 6 9 mph 1022mb 19f
5:20am 6 11 mph 1022mb 20f
5:10am 8 13 mph 1022mb 19f
5:03am 5 9 mph 1022mb 19f
5:00am 5 9 mph 1022mb 19f
4:50am 5 9 mph 1022mb 19f
4:40am 5 8 mph 1021.7mb 19f
4:30am 5 7 mph 1021.7mb 19f
4:20am 5 8 mph 1021.3mb 19f
4:10am 6 9 mph 1021.7mb 19f
4:02am 7 11 mph 1021.7mb 20f
4:00am 6 9 mph 1021.7mb 20f
3:50am 6 9 mph 1021.7mb 20f
3:40am 5 11 mph 1021.7mb 21f
3:30am 7 11 mph 1021.3mb 21f
3:20am 6 11 mph 1021.7mb 21f
3:10am 7 11 mph 1021.3mb 22f
3:02am 3 10 mph 1021.3mb 22f
3:00am 5 10 mph 1021.3mb 22f
2:50am 5 8 mph 1021.3mb 22f
2:40am 5 7 mph 1021.3mb 21f
2:30am 2 7 mph 1021.3mb 20f
2:20am  -  6 mph 1021.3mb 20f
2:10am 1 3 mph 1021.3mb 19f
2:02am  -  5 mph 1021.3mb 19f
2:00am  -  mph 1021.3mb 19f
1:50am  -  mph 1021.3mb 19f
1:40am  -  2 mph 1021.3mb 20f
1:30am  -  5 mph 1021.3mb 19f
1:20am 3 5 mph 1021.3mb 20f
1:10am 2 6 mph 1021mb 19f
1:01am 3 9 mph 1021mb 19f
1:00am 3 7 mph 1021mb 19f
12:50am 3 6 mph 1021mb 19f
12:40am 5 7 mph 1021mb 19f
12:30am 6 8 mph 1021mb 19f
12:20am 5 8 mph 1021mb 20f
12:10am 5 9 mph 1021mb 20f
12:01am 5 9 mph 1021mb 20f
12:00am 5 9 mph 1021mb 20f
Thu 02/04 11:50pm 6 9 mph 1021mb 20f
11:40pm 6 8 mph 1021mb 20f
11:30pm 6 8 mph 1020.7mb 20f
11:20pm 6 8 mph 1020.7mb 20f
11:10pm 6 8 mph 1020.7mb 20f
11:00pm 3 8 mph 1020.7mb 20f
10:50pm 6 8 mph 1020.7mb 20f
10:40pm 5 7 mph 1020.7mb 21f
10:30pm 5 7 mph 1020.7mb 21f
10:20pm 6 8 mph 1020.7mb 20f
10:10pm 6 7 mph 1020.7mb 20f
10:00pm 5 6 mph 1020.7mb 19f
9:50pm 3 5 mph 1020.7mb 19f
9:40pm 3 5 mph 1020.7mb 19f
9:30pm 3 5 mph 1020.7mb 19f
9:20pm 3 5 mph 1020.7mb 19f
9:10pm 2 7 mph 1020.7mb 21f
9:00pm 3 5 mph 1020.7mb 21f
8:50pm 1 3 mph 1020.7mb 20f
8:40pm 2 3 mph 1020.7mb 21f
8:30pm 3 5 mph 1020.7mb 23f
8:20pm 3 9 mph 1020.7mb 23f
8:10pm 6 10 mph 1020.7mb 23f
8:00pm 8 11 mph 1020.7mb 23f
7:50pm 5 9 mph 1020.7mb 23f
7:41pm 8 11 mph 1020.3mb 24f
7:40pm 8 11 mph 1020.3mb 24f
7:30pm 6 11 mph 1020.3mb 23f
7:20pm 7 10 mph 1020.3mb 23f
7:10pm 5 7 mph 1020.3mb 23f
7:00pm 5 7 mph 1020.3mb 23f
6:50pm 7 10 mph 1020.3mb 24f
6:40pm 6 8 mph 1020.3mb 23f
6:30pm 6 9 mph 1020.3mb 24f
6:20pm 6 13 mph 1020.3mb 24f
6:10pm 2 6 mph 1020.3mb 23f
6:00pm 2 8 mph 1020.3mb 24f
5:50pm 6 11 mph 1020.3mb 24f
5:40pm 10 11 mph 1020.3mb 24f
5:30pm 8 10 mph 1020mb 24f
5:20pm 9 10 mph 1020mb 24f
5:10pm 7 10 mph 1020mb 24f
5:00pm 8 13 mph 1019.6mb 24f
4:50pm 8 11 mph 1019.6mb 24f
4:40pm 7 10 mph 1019.6mb 24f
4:30pm 8 10 mph 1019.6mb 24f
4:20pm 9 13 mph 1019.6mb 25f
4:10pm 6 11 mph 1019.6mb 25f
4:00pm 8 10 mph 1019.6mb 25f
3:50pm 2 8 mph 1019.6mb 25f
3:40pm 6 8 mph 1019.3mb 25f
3:30pm 6 9 mph 1019.3mb 25f
3:21pm 8 10 mph 1019.3mb 25f
3:10pm 8 10 mph 1019mb 25f
3:00pm 8 9 mph 1019mb 25f
2:50pm 7 8 mph 1019mb 25f
2:40pm 2 8 mph 1019mb 25f
2:30pm 5 6 mph 1018.6mb 26f
2:21pm 2 8 mph 1018.6mb 25f
2:20pm 2 7 mph 1019mb 25f
2:10pm 3 6 mph 1018.6mb 26f
2:00pm 5 7 mph 1018.6mb 25f
1:50pm 6 8 mph 1018.6mb 26f
1:40pm 5 8 mph 1018.6mb 26f
1:30pm 5 7 mph 1018.6mb 26f
1:20pm 5 10 mph 1018.6mb 26f
1:10pm 5 8 mph 1018.6mb 25f
1:00pm 5 8 mph 1018.6mb 25f
12:50pm 6 9 mph 1018.6mb 25f
12:40pm 6 10 mph 1018.6mb 25f
12:30pm 5 8 mph 1018.6mb 26f
12:20pm 5 9 mph 1018.6mb 26f
12:10pm 5 8 mph 1018.6mb 26f
12:00pm 3 7 mph 1018.6mb 26f
11:50am 3 8 mph 1018.6mb 26f
11:40am 5 8 mph 1018.6mb 26f
11:30am 5 6 mph 1018.6mb 28f
11:20am 2 7 mph 1019mb 28f
11:19am 2 8 mph 1019mb 30f
11:10am  -  3 mph 1019mb 31f
11:00am 2 7 mph 1019mb 28f
10:50am 3 7 mph 1019mb 26f
10:40am 2 7 mph 1019mb 26f
10:30am 3 8 mph 1019mb 25f
10:20am 5 6 mph 1019mb 26f
10:19am 3 9 mph 1019mb 26f
10:10am 3 9 mph 1019mb 24f
9:50am 6 8 mph 1019mb 23f
9:40am 6 8 mph 1019mb 22f
9:30am 3 7 mph 1018.6mb 23f
9:20am 3 6 mph 1019mb 23f
9:19am 2 8 mph 1018.6mb 23f
9:10am 3 6 mph 1018.6mb 22f
9:00am 2 6 mph 1018.6mb 22f
8:50am 3 6 mph 1018.6mb 21f
8:40am 3 8 mph 1018.3mb 20f
8:30am 3 8 mph 1017.9mb 20f
8:20am 5 7 mph 1017.9mb 20f
8:18am 5 7 mph 1017.9mb 20f
8:10am 5 7 mph 1017.9mb 20f
8:00am 3 5 mph 1017.9mb 20f
7:50am 3 6 mph 1017.9mb 19f
7:40am 2 6 mph 1017.6mb 20f
7:30am 3 6 mph 1017.3mb 20f
7:20am 3 7 mph 1017.3mb 19f
7:18am 5 7 mph 1016.9mb 19f
7:10am 5 7 mph 1016.9mb 19f
7:00am 5 6 mph 1016.9mb 19f
6:50am 3 6 mph 1016.6mb 19f
6:40am 3 6 mph 1016.6mb 19f
6:30am 3 5 mph 1016.6mb 19f
6:20am 3 5 mph 1016.3mb 19f
6:17am 3 6 mph 1016.3mb 19f
6:10am 3 5 mph 1016.3mb 20f
6:00am 3 5 mph 1016.3mb 20f
5:50am 3 6 mph 1015.9mb 20f
5:40am 3 5 mph 1015.9mb 19f
5:30am 3 5 mph 1015.6mb 19f
5:20am 3 6 mph 1015.6mb 20f
5:17am 3 8 mph 1015.6mb 19f
5:10am 5 7 mph 1015.6mb 19f
5:00am 5 6 mph 1015.6mb 19f
4:50am 3 6 mph 1015.6mb 19f
4:30am 5 8 mph 1015.2mb 19f
4:20am 6 8 mph 1014.9mb 19f
4:17am 6 8 mph 1014.9mb 19f
4:10am 5 8 mph 1014.9mb 19f
4:00am 5 8 mph 1014.9mb 19f
3:50am 6 7 mph 1014.6mb 19f
3:40am 5 7 mph 1014.6mb 19f
3:30am 5 6 mph 1014.2mb 19f
3:20am 3 5 mph 1014.2mb 19f
3:16am 3 7 mph 1014.2mb 19f
3:10am 3 6 mph 1014.2mb 19f
3:00am 3 5 mph 1013.9mb 19f
2:50am 3 6 mph 1013.9mb 19f
2:40am 3 7 mph 1013.9mb 18f
2:30am 3 7 mph 1013.9mb 18f
2:20am 5 7 mph 1013.9mb 18f
2:16am 5 7 mph 1013.9mb 18f
2:10am 5 6 mph 1013.9mb 18f
2:00am 5 7 mph 1013.5mb 18f
1:50am 5 7 mph 1013.2mb 18f
1:40am 6 7 mph 1013.2mb 18f
1:30am 5 6 mph 1013.2mb 18f
1:20am 5 7 mph 1013.2mb 17f
1:15am 5 8 mph 1012.9mb 17f
1:10am 5 7 mph 1012.9mb 17f
1:00am 5 7 mph 1012.9mb 18f
12:50am 6 8 mph 1012.9mb 18f
12:40am 5 8 mph 1012.9mb 18f
12:30am 3 6 mph 1012.9mb 18f
12:20am 1 6 mph 1012.5mb 18f
12:15am 5 9 mph 1012.5mb 18f
12:10am 5 9 mph 1012.2mb 18f
12:00am 6 8 mph 1012.2mb 19f
Wed 02/03 11:50pm 6 8 mph 1012.2mb 19f
11:40pm 5 7 mph 1012.2mb 18f
11:30pm 5 9 mph 1011.5mb 18f
11:15pm 5 9 mph 1011.2mb 18f
11:10pm 5 9 mph 1010.8mb 18f
11:00pm 6 9 mph 1010.8mb 19f
10:50pm 6 8 mph 1010.8mb 19f
10:40pm 5 6 mph 1010.5mb 19f
10:30pm 3 8 mph 1010.2mb 19f
10:20pm 6 9 mph 1009.8mb 19f
10:14pm 6 13 mph 1009.5mb 19f
10:10pm 7 9 mph 1009.5mb 19f
10:00pm 6 8 mph 1009.5mb 19f
9:50pm 6 7 mph 1009.5mb 20f
9:40pm 5 9 mph 1009.1mb 20f
9:30pm 8 10 mph 1008.8mb 20f
9:20pm 8 13 mph 1008.5mb 20f
9:14pm 7 18 mph 1008.5mb 21f
9:10pm 7 14 mph 1008.5mb 21f
9:00pm 9 14 mph 1008.1mb 21f
8:50pm 7 13 mph 1007.8mb 21f
8:40pm 10 16 mph 1007.8mb 22f
8:30pm 14 18 mph 1007.5mb 22f
8:20pm 10 15 mph 1007.5mb 22f
8:13pm 10 14 mph 1007.1mb 22f
8:10pm 7 11 mph 1007.5mb 22f
8:00pm 8 13 mph 1007.1mb 22f
7:50pm 9 14 mph 1006.8mb 23f
7:40pm 9 11 mph 1006.8mb 23f
7:30pm 9 11 mph 1006.4mb 23f
7:20pm 7 14 mph 1006.4mb 23f
7:13pm 9 15 mph 1006.1mb 23f
7:10pm 8 13 mph 1006.1mb 23f
7:00pm 8 15 mph 1005.8mb 24f
6:50pm 8 11 mph 1005.4mb 24f
6:40pm 7 14 mph 1005.4mb 24f
6:30pm 8 15 mph 1005.1mb 24f
6:20pm 9 14 mph 1005.1mb 25f
6:13pm 10 21 mph 1004.7mb 25f
6:10pm 8 17 mph 1004.7mb 25f
5:40pm 13 21 mph 1003.7mb 26f
5:30pm 13 21 mph 1003.4mb 26f
5:20pm 10 20 mph 1003.4mb 27f
5:12pm 10 17 mph 1003mb 27f
5:10pm 10 17 mph 1003mb 27f
5:00pm 10 17 mph 1002.7mb 27f
4:50pm 6 10 mph 1002.4mb 27f
4:40pm 9 13 mph 1002mb 27f
4:30pm 9 16 mph 1001.7mb 27f
4:20pm 9 15 mph 1001.4mb 28f
4:12pm 11 17 mph 1001mb 28f
4:10pm 9 17 mph 1001mb 28f
4:00pm 11 15 mph 1000.7mb 28f
3:50pm 7 15 mph 1000.7mb 28f
3:40pm 11 15 mph 1000.3mb 29f
3:30pm 9 15 mph 1000.3mb 29f
3:20pm 10 14 mph 1000mb 29f
3:11pm 10 14 mph 1000mb 29f
3:10pm 10 14 mph 999.7mb 29f
3:00pm 7 13 mph 999.7mb 29f
2:50pm 9 13 mph 999.3mb 30f
2:40pm 8 11 mph 999.3mb 31f
2:30pm 3 6 mph 998.6mb 31f
2:20pm 5 7 mph 998.6mb 30f
2:11pm 5 11 mph 998.3mb 30f
2:10pm 5 7 mph 998.3mb 30f
2:00pm 3 7 mph 997.6mb 30f
1:50pm 3 9 mph 997.3mb 30f
1:40pm 6 8 mph 997mb 30f
1:30pm 7 11 mph 996.6mb 30f
1:20pm 7 10 mph 996.6mb 30f
1:11pm 7 11 mph 996.6mb 30f
1:10pm 7 9 mph 996.3mb 30f
1:00pm 7 9 mph 996.3mb 30f
12:50pm 8 10 mph 995.9mb 30f
12:30pm 8 10 mph 996.3mb 31f
12:20pm 8 10 mph 996.3mb 31f
12:10pm 7 11 mph 996.3mb 31f
12:00pm 8 10 mph 996.3mb 31f
11:50am 7 8 mph 996.3mb 31f
11:40am 6 8 mph 996.3mb 31f
11:30am 6 8 mph 996.3mb 31f
11:20am 8 11 mph 996.3mb 31f
11:10am 8 9 mph 996.3mb 31f
11:00am 7 9 mph 996.3mb 31f
10:50am 7 9 mph 996.3mb 31f
10:40am 7 8 mph 996.6mb 31f
10:30am 6 9 mph 996.6mb 31f
10:20am 5 8 mph 997mb 31f
10:10am 7 9 mph 996.6mb 31f
10:09am 8 11 mph 996.6mb 31f
10:00am 6 9 mph 996.6mb 31f
9:50am 7 10 mph 996.6mb 30f
9:40am 8 11 mph 996.3mb 30f
9:30am 8 10 mph 996.3mb 30f
9:20am 6 10 mph 996.6mb 30f
9:10am 6 8 mph 997mb 30f
9:09am 6 8 mph 997mb 30f
9:00am 5 6 mph 997mb 30f
8:50am 5 6 mph 997mb 30f
8:40am 5 6 mph 997mb 30f
8:30am 5 7 mph 997mb 30f
8:20am 5 7 mph 997mb 29f
8:10am 5 7 mph 996.6mb 29f
8:09am 5 10 mph 997mb 29f
8:00am 3 7 mph 996.6mb 29f
7:40am 6 9 mph 996.6mb 29f
7:30am 7 9 mph 996.6mb 29f
7:10am 9 10 mph 996.6mb 29f
7:08am 8 10 mph 996.6mb 30f
7:00am 7 9 mph 996.6mb 30f
6:50am 6 7 mph 997mb 30f
6:40am 6 9 mph 997mb 30f
6:30am 8 10 mph 996.6mb 30f
6:20am 7 8 mph 997mb 30f
6:10am 6 7 mph 997mb 30f
6:08am 6 11 mph 997mb 30f
6:00am 7 10 mph 997mb 31f
5:50am 8 10 mph 997mb 30f
5:40am 8 9 mph 997.3mb 30f
5:30am 8 11 mph 997.3mb 30f
5:20am 7 10 mph 997.3mb 30f
5:10am 8 10 mph 997.3mb 30f
5:07am 9 14 mph 997.3mb 30f
5:00am 8 11 mph 997.3mb 30f
4:50am 10 13 mph 997.3mb 30f
4:40am 10 13 mph 997.6mb 30f
4:30am 8 10 mph 998mb 30f
4:20am 9 14 mph 998mb 30f
4:10am 9 14 mph 998mb 30f
4:07am 10 16 mph 998mb 30f
4:00am 11 14 mph 998mb 30f
3:50am 11 14 mph 998.3mb 30f
3:40am 10 14 mph 998.6mb 30f
3:30am 10 14 mph 998.6mb 29f
3:20am 13 16 mph 998.6mb 29f
3:10am 10 16 mph 999.3mb 29f
3:07am 13 18 mph 999mb 29f
3:00am 15 18 mph 999mb 29f
2:50am 14 18 mph 999.3mb 29f
2:40am 15 18 mph 999.7mb 29f
2:30am 15 18 mph 999.7mb 29f
2:20am 15 18 mph 1000.3mb 29f
2:10am 15 17 mph 1000.7mb 29f
2:06am 14 20 mph 1000.7mb 29f
1:50am 13 17 mph 1001.7mb 29f
1:40am 14 20 mph 1001.4mb 29f
1:30am 14 17 mph 1001.7mb 29f
1:20am 11 17 mph 1001.7mb 29f
1:10am 14 18 mph 1001.7mb 29f
1:06am 14 22 mph 1001.7mb 29f
1:00am 15 20 mph 1001.7mb 29f
12:50am 17 21 mph 1002mb 29f
12:40am 15 22 mph 1002.4mb 29f
12:30am 18 21 mph 1002.7mb 29f
12:20am 16 20 mph 1003mb 29f
12:10am 16 20 mph 1003.4mb 29f
12:05am 16 25 mph 1003.4mb 29f
12:00am 15 20 mph 1003.7mb 29f
Tue 02/02 11:50pm 16 24 mph 1003.7mb 29f
11:40pm 18 24 mph 1003.7mb 29f
11:30pm 20 25 mph 1004.1mb 29f
11:20pm 18 23 mph 1004.4mb 29f
11:10pm 16 26 mph 1005.1mb 29f
11:05pm 17 26 mph 1005.1mb 29f
11:00pm 18 24 mph 1005.1mb 30f
10:50pm 20 25 mph 1005.4mb 29f
10:40pm 20 24 mph 1005.8mb 29f
10:30pm 17 23 mph 1006.4mb 29f
10:20pm 18 24 mph 1006.8mb 30f
10:10pm 17 23 mph 1007.5mb 30f
10:05pm 17
mph
1007.1mb 30f
10:00pm 17 24 mph 1007.5mb 29f
9:50pm 15 23 mph 1007.8mb 29f
9:40pm 17 25 mph 1007.5mb 29f
9:30pm 21 24 mph 1007.8mb 29f
9:20pm 21 29 mph 1007.8mb 29f
9:10pm 20 24 mph 1008.1mb 29f
9:00pm 20 24 mph 1009.1mb 30f
8:50pm 21 28 mph 1009.5mb 30f
8:30pm 16 26 mph 1009.8mb 30f
8:20pm 20 23 mph 1009.8mb 30f
8:10pm 20 25 mph 1010.5mb 30f
8:04pm 16 28 mph 1010.8mb 30f
8:00pm 17 22 mph 1010.8mb 30f
7:50pm 18 23 mph 1011.2mb 30f
7:40pm 14 20 mph 1011.5mb 30f
7:30pm 17 22 mph 1012.2mb 30f
7:20pm 18 22 mph 1012.5mb 30f
7:10pm 20 28 mph 1012.9mb 30f